This is the latest recevied weather packets stored in our database for station/object SR9NCI. If no packets are shown the sender has not sent any weather packets the latest 1 day(s).
| Time | Temp. | Humidity | Pressure | Rain* | Wind** | Luminosity | Snow |
|---|---|---|---|---|---|---|---|
| 1777969701 | 25° C | - | 0 hPa | - | 4.92 m/s, 146° | - | - |
| 1777969460 | 24.44° C | - | 0 hPa | - | 6.26 m/s, 149° | - | - |
| 1777969218 | 23.89° C | - | 0 hPa | - | 6.71 m/s, 137° | - | - |
| 1777968976 | 24.44° C | - | 0 hPa | - | 6.26 m/s, 136° | - | - |
| 1777968735 | 24.44° C | - | 0 hPa | - | 6.71 m/s, 160° | - | - |
| 1777968494 | 23.89° C | - | 0 hPa | - | 7.15 m/s, 140° | - | - |
| 1777968253 | 23.89° C | - | 0 hPa | - | 6.26 m/s, 167° | - | - |
| 1777968010 | 23.89° C | - | 0 hPa | - | 7.15 m/s, 155° | - | - |
| 1777967762 | 23.33° C | - | 0 hPa | - | 3.58 m/s, 161° | - | - |
| 1777967520 | 23.33° C | - | 0 hPa | - | 5.81 m/s, 154° | - | - |
| 1777967279 | 23.89° C | - | 0 hPa | - | 5.36 m/s, 154° | - | - |
| 1777967037 | 23.89° C | - | 0 hPa | - | 4.92 m/s, 133° | - | - |
| 1777966795 | 23.89° C | - | 0 hPa | - | 4.92 m/s, 143° | - | - |
| 1777966554 | 23.89° C | - | 0 hPa | - | 5.81 m/s, 156° | - | - |
| 1777966312 | 23.89° C | - | 0 hPa | - | 5.36 m/s, 134° | - | - |
| 1777966070 | 23.89° C | - | 0 hPa | - | 5.81 m/s, 145° | - | - |
| 1777965829 | 23.33° C | - | 0 hPa | - | 5.36 m/s, 141° | - | - |
| 1777965587 | 23.33° C | - | 0 hPa | - | 5.81 m/s, 141° | - | - |
| 1777965339 | 23.89° C | - | 0 hPa | - | 6.26 m/s, 145° | - | - |
| 1777965096 | 24.44° C | - | 0 hPa | - | 5.36 m/s, 148° | - | - |
| 1777964855 | 26.11° C | - | 0 hPa | - | 7.15 m/s, 140° | - | - |
| 1777964614 | 25.56° C | - | 0 hPa | - | 6.71 m/s, 152° | - | - |
| 1777964372 | 23.89° C | - | 0 hPa | - | 6.26 m/s, 148° | - | - |
| 1777963888 | 22.22° C | - | 0 hPa | - | 6.26 m/s, 150° | - | - |
| 1777963647 | 22.22° C | - | 0 hPa | - | 5.36 m/s, 140° | - | - |
* Rain since midnight (hover to see other rain measurements)
** Current wind speed in m/s (hover to see current wind gust speed)